Wind_Speed
14 14 14 14 14 14 14 14 14 14 14 14 14 15 15 15 16 17 17 17 17 17 17 17 16 17 17 17 17 17 17 17 17 17 16 16 17 17 17 16 16 15 14
13 14 14 14 15 14 14 14 14 14 13 14 14 15 15 15 16 17 17 17 17 18 18 18 17 17 16 17 17 17 17 17 17 16 16 16 17 17 16 16 16 16 16
14 14 14 14 14 14 15 15 15 14 13 13 14 15 15 15 15 16 17 17 16 17 17 17 17 17 17 16 16 16 16 16 16 17 17 16 17 17 17 17 17 17 17
15 15 14 14 15 15 16 16 15 15 15 14 14 14 14 14 14 15 15 16 16 16 16 16 16 17 17 16 16 15 15 16 16 16 16 16 17 17 17 17 17 17 17
15 15 15 15 16 16 16 17 17 16 16 16 16 15 15 15 15 15 15 15 16 16 16 16 16 17 17 17 16 15 16 15 15 16 16 16 16 16 17 16 16 16 17
15 16 16 16 16 16 16 17 17 17 17 17 16 16 16 16 16 15 15 15 16 16 17 17 17 17 17 17 18 17 16 16 16 16 16 16 16 17 17 18 17 17 17
16 16 16 16 16 16 16 17 17 17 17 17 16 16 15 15 15 14 14 15 15 16 17 17 17 17 17 17 18 18 18 18 17 16 17 17 17 17 17 18 18 18 18
16 16 16 16 16 16 17 17 18 18 17 17 16 16 15 15 15 15 14 15 15 16 17 17 17 17 18 18 18 18 18 19 18 18 18 18 17 17 17 18 18 18 19
16 17 18 17 17 17 17 17 17 17 17 17 17 16 15 15 16 16 15 16 16 17 17 17 17 17 17 17 17 17 17 18 18 18 18 18 18 18 19 19 19 19 20
17 18 18 18 17 17 17 16 17 17 17 17 17 16 16 16 15 16 16 16 17 17 17 17 17 17 17 17 16 17 17 17 18 18 18 18 19 20 20 20 20 20 20
18 18 17 18 18 17 16 16 17 17 17 17 17 16 15 15 16 16 16 16 16 17 17 18 18 18 19 18 18 18 17 18 18 19 19 19 20 21 21 21 21 21 21
19 19 18 18 17 17 17 17 17 17 17 17 16 16 16 16 17 17 16 17 17 17 17 17 18 18 18 18 18 18 19 19 19 19 19 19 20 20 21 21 21 21 22
20 20 20 19 18 17 17 17 17 17 17 17 17 16 17 17 18 18 18 18 18 18 18 18 18 18 18 19 19 19 20 20 20 20 21 21 21 21 21 21 21 22 22
20 20 20 20 19 18 18 19 19 19 19 19 18 18 18 19 19 19 19 19 19 19 19 19 19 19 19 19 20 20 21 21 22 22 22 23 23 23 23 23 22 23 23
20 20 21 21 20 20 20 20 20 21 21 21 20 20 20 20 20 20 20 20 20 20 20 20 20 21 21 21 21 22 23 23 23 23 23 24 24 24 24 23 23 23 23
21 21 21 21 21 22 22 21 21 21 22 22 21 21 21 21 21 21 21 22 22 22 21 21 22 21 22 22 22 23 23 23 23 23 24 24 25 24 24 24 24 24 24
22 21 21 22 22 23 23 23 23 23 23 22 22 22 22 22 22 22 22 23 23 23 22 22 23 24 23 24 24 24 24 24 24 24 24 25 25 25 25 25 25 26 25
23 23 23 23 24 24 24 24 24 24 24 23 23 23 23 24 24 24 24 24 24 24 24 24 24 24 25 25 25 25 25 25 25 24 24 25 25 25 25 26 26 27 27
24 24 24 24 24 24 24 24 25 25 25 25 25 24 24 25 25 26 26 26 25 25 25 25 25 25 25 26 26 26 26 25 25 25 25 25 25 25 25 26 26 26 26
26 25 25 25 25 25 25 26 26 26 26 26 26 26 26 26 26 26 27 27 27 27 27 26 26 26 26 26 26 26 26 26 26 26 26 25 26 26 25 25 25 25 25
26 26 26 26 26 26 27 27 27 27 27 26 26 26 27 27 27 27 27 27 27 28 28 28 27 27 26 26 26 26 26 26 26 25 25 25 26 25 25 25 25 25 25
27 27 28 28 28 28 27 27 27 27 26 26 26 26 26 27 27 27 27 27 27 28 28 27 27 27 27 27 27 27 26 26 25 25 25 25 25 25 25 25 25 26 26
28 28 29 29 29 29 29 28 28 28 27 27 27 27 27 27 27 27 27 26 26 26 27 27 27 27 27 27 27 27 27 26 26 25 25 25 25 25 25 25 25 25 25
29 29 29 30 30 29 29 29 29 29 28 28 27 27 27 26 27 27 26 26 26 26 27 27 27 27 27 27 28 28 27 27 26 26 26 26 26 26 26 25 25 25 24
29 29 29 29 30 30 30 30 30 30 29 28 27 27 27 27 27 27 27 26 26 26 27 27 27 27 27 28 28 27 27 27 26 26 27 27 26 26 25 25 25 24 24
28 28 29 29 29 30 30 30 30 31 30 29 28 28 28 27 27 27 27 27 27 26 27 27 28 28 28 28 28 27 27 26 25 25 26 26 26 26 25 25 25 24 24
Wind_Direction
278 280 282 281 283 286 286 287 287 289 289 291 290 287 286 285 283 278 272 268 266 265 264 266 265 265 266 267 268 268 268 268 265 264 262 260 259 257 254 255 256 258 257
279 280 280 280 280 283 286 286 287 289 290 289 288 284 282 280 278 276 271 266 264 264 262 263 265 267 268 268 268 267 266 266 264 262 261 260 257 254 254 254 255 257 257
281 283 283 281 281 283 286 285 286 285 287 288 288 286 283 280 278 276 271 266 262 260 260 261 265 266 267 265 266 264 262 263 264 263 262 261 258 256 254 255 256 256 257
282 285 287 287 286 286 286 285 285 285 286 287 289 288 286 283 278 274 270 266 264 262 260 262 263 265 265 262 263 262 261 262 262 262 262 261 258 256 255 256 258 258 259
285 286 287 289 288 288 287 286 287 285 285 286 287 287 286 285 281 275 270 267 265 262 261 259 261 265 265 264 264 264 264 265 263 261 262 261 259 258 256 258 261 262 262
287 286 287 288 289 289 288 288 287 285 284 284 285 284 283 282 282 276 270 268 265 262 260 258 262 263 262 264 265 266 266 269 267 266 265 264 262 262 259 259 262 262 264
284 287 286 287 289 290 290 288 288 286 283 283 284 283 282 282 279 274 270 268 266 264 260 257 261 263 263 266 268 268 265 268 269 267 267 266 266 264 262 261 262 261 262
282 284 287 288 289 291 290 288 287 285 285 283 283 281 280 278 274 270 271 269 264 263 261 258 260 262 263 267 268 267 266 267 268 266 266 265 266 265 264 262 260 259 260
280 281 284 287 288 289 289 288 286 285 286 285 283 279 278 278 272 268 269 271 268 265 266 265 262 261 265 268 268 267 268 266 265 265 264 266 266 265 265 263 261 259 258
280 282 282 287 288 288 287 289 287 286 285 284 281 279 276 276 274 269 270 273 272 269 267 268 267 263 265 269 268 268 268 268 267 267 267 266 266 265 265 264 261 260 259
279 280 283 285 287 287 286 287 288 286 285 285 281 280 279 277 276 272 270 274 275 273 271 271 270 269 268 270 271 271 270 271 269 268 268 268 267 267 266 264 261 260 260
278 280 281 283 284 285 285 286 287 286 285 285 285 283 281 281 280 278 276 275 277 276 274 273 273 273 273 272 273 275 274 272 270 269 270 269 268 268 268 265 262 262 262
278 278 279 279 281 282 282 283 284 284 284 284 284 283 281 283 283 282 279 277 277 278 277 276 276 276 275 274 273 274 275 274 272 270 270 270 270 269 269 266 263 264 263
279 280 278 276 276 278 279 281 281 281 282 282 282 283 281 281 281 282 281 278 276 277 277 277 276 276 276 275 274 274 273 273 273 272 272 272 271 271 269 266 265 267 265
279 279 278 276 275 277 278 278 278 279 280 280 280 281 281 281 280 280 279 279 277 277 276 276 277 276 276 275 274 273 273 272 273 273 273 274 273 270 268 266 265 266 264
280 279 278 276 277 278 277 277 277 279 281 281 279 279 279 279 279 279 278 277 277 277 276 276 277 277 276 275 274 275 275 273 273 273 274 275 274 270 268 269 268 266 264
279 279 278 277 277 277 278 276 276 277 279 280 279 278 278 278 278 279 279 278 278 279 278 277 277 278 278 277 276 275 275 274 273 273 274 274 274 273 272 271 269 266 265
279 278 278 278 278 278 278 277 277 277 277 278 279 279 279 278 278 278 278 278 278 278 278 278 278 278 277 277 276 275 275 275 274 273 273 273 273 272 272 271 270 268 266
279 279 279 279 278 278 279 278 278 278 277 277 278 277 278 279 278 277 277 278 278 278 278 278 278 277 277 277 276 275 275 275 275 273 273 272 272 272 273 273 271 269 266
279 279 279 279 279 279 279 279 279 280 279 278 278 278 278 278 278 278 278 278 278 278 278 279 278 278 277 278 277 276 275 274 274 272 272 272 271 272 273 273 272 270 266
278 278 279 279 280 280 279 279 279 279 279 279 279 279 278 278 278 279 279 279 278 278 279 279 278 278 277 277 276 276 275 275 275 273 272 271 270 270 270 272 273 270 267
277 278 278 279 280 279 279 279 279 278 279 279 281 280 280 279 279 279 279 278 278 279 279 279 279 278 278 277 276 275 275 276 275 274 272 271 270 270 270 270 271 270 267
276 277 278 279 279 279 278 278 278 277 278 278 280 280 280 280 279 278 279 279 280 280 280 280 279 278 277 277 277 275 275 275 275 274 273 271 270 271 271 271 269 268 266
277 277 278 279 279 278 279 279 278 277 277 277 278 278 279 279 280 279 280 280 280 280 280 281 281 280 279 278 277 275 273 273 273 272 271 270 270 270 270 270 270 268 266
278 278 278 279 278 278 278 278 278 278 278 277 277 277 278 278 280 280 279 280 280 280 280 281 282 281 280 279 277 275 274 273 272 272 270 269 269 269 270 270 268 267 266
278 280 279 278 279 279 278 278 277 278 277 275 275 276 277 277 279 280 280 280 280 281 281 281 281 281 281 279 276 274 274 272 271 271 270 269 268 268 267 267 266 265 265
Height
5841 5841 5841 5841 5840 5839 5839 5838 5837 5836 5835 5833 5832 5830 5829 5828 5828 5828 5828 5828 5829 5830 5830 5830 5830 5831 5831 5830 5831 5831 5831 5831 5831 5831 5832 5832 5833 5834 5834 5835 5836 5836 5837
5838 5838 5838 5837 5837 5836 5835 5835 5834 5833 5832 5831 5829 5828 5826 5825 5824 5824 5824 5824 5825 5825 5826 5826 5826 5826 5826 5826 5826 5826 5826 5826 5826 5827 5827 5828 5829 5830 5830 5831 5832 5833 5833
5835 5835 5834 5834 5833 5833 5832 5831 5831 5830 5829 5827 5826 5824 5823 5822 5820 5820 5820 5820 5821 5821 5821 5822 5822 5822 5823 5822 5822 5822 5822 5822 5822 5823 5823 5824 5824 5825 5826 5827 5828 5829 5829
5831 5831 5830 5830 5829 5829 5828 5828 5827 5826 5825 5824 5822 5821 5820 5818 5817 5816 5816 5816 5816 5817 5817 5818 5818 5818 5818 5818 5818 5818 5818 5818 5818 5818 5819 5820 5820 5821 5822 5823 5824 5824 5825
5827 5827 5827 5826 5826 5825 5825 5824 5823 5822 5821 5820 5819 5817 5816 5814 5813 5812 5812 5812 5812 5812 5813 5813 5814 5814 5813 5813 5814 5813 5813 5813 5814 5814 5815 5815 5816 5817 5818 5819 5820 5820 5821
5824 5824 5823 5822 5822 5821 5821 5820 5819 5818 5817 5816 5815 5813 5812 5810 5809 5809 5809 5808 5808 5808 5808 5809 5809 5809 5809 5809 5809 5809 5809 5809 5809 5809 5810 5811 5812 5812 5813 5814 5815 5816 5817
5820 5820 5819 5819 5818 5817 5817 5816 5815 5814 5813 5812 5810 5809 5807 5806 5805 5805 5805 5804 5804 5804 5804 5804 5805 5805 5805 5804 5804 5804 5804 5804 5804 5805 5805 5806 5807 5808 5808 5810 5811 5812 5812
5816 5816 5815 5815 5814 5813 5812 5812 5810 5809 5808 5807 5806 5805 5804 5804 5802 5801 5801 5800 5800 5800 5800 5800 5800 5800 5800 5800 5800 5799 5799 5799 5799 5800 5801 5801 5802 5803 5804 5804 5805 5807 5808
5812 5811 5811 5810 5809 5809 5808 5807 5806 5805 5804 5803 5802 5801 5800 5799 5798 5798 5797 5796 5796 5796 5796 5795 5796 5796 5796 5796 5795 5795 5794 5794 5794 5795 5796 5796 5797 5798 5798 5799 5800 5801 5803
5807 5807 5806 5806 5805 5804 5803 5803 5802 5801 5800 5798 5797 5796 5795 5794 5794 5794 5793 5792 5792 5791 5791 5791 5791 5791 5791 5791 5790 5790 5790 5789 5790 5790 5791 5791 5792 5792 5793 5794 5795 5796 5797
5802 5802 5801 5801 5800 5799 5799 5798 5797 5796 5795 5794 5793 5792 5790 5790 5789 5789 5789 5788 5788 5787 5786 5786 5786 5786 5786 5786 5785 5785 5785 5784 5784 5785 5785 5786 5786 5787 5787 5788 5789 5790 5791
5798 5797 5796 5796 5795 5795 5794 5793 5792 5792 5791 5790 5788 5787 5786 5786 5785 5784 5784 5784 5783 5782 5782 5781 5781 5781 5781 5780 5780 5780 5780 5779 5779 5780 5780 5780 5781 5781 5781 5782 5783 5784 5785
5793 5792 5792 5791 5791 5790 5789 5789 5788 5787 5786 5785 5784 5783 5782 5781 5780 5780 5779 5779 5778 5778 5777 5776 5776 5775 5775 5775 5775 5775 5774 5774 5774 5774 5774 5774 5775 5775 5775 5776 5777 5778 5778
5788 5787 5786 5786 5786 5785 5784 5784 5783 5782 5781 5780 5779 5778 5777 5776 5775 5775 5774 5773 5773 5773 5772 5771 5770 5770 5770 5769 5769 5769 5768 5768 5768 5768 5768 5768 5768 5769 5769 5769 5770 5771 5771
5782 5782 5781 5781 5780 5780 5779 5778 5778 5777 5776 5775 5774 5773 5772 5771 5770 5769 5768 5768 5768 5767 5767 5765 5765 5764 5764 5763 5763 5763 5762 5762 5762 5762 5762 5762 5762 5762 5762 5763 5763 5764 5764
5776 5776 5775 5775 5774 5774 5773 5772 5772 5771 5770 5769 5768 5767 5766 5765 5764 5763 5762 5762 5761 5761 5760 5759 5758 5758 5757 5756 5756 5756 5756 5755 5755 5755 5755 5755 5755 5755 5755 5755 5756 5756 5757
5771 5770 5769 5769 5768 5768 5767 5766 5765 5764 5763 5762 5761 5760 5759 5758 5758 5757 5756 5755 5754 5754 5754 5753 5752 5751 5750 5749 5749 5748 5748 5748 5748 5747 5747 5747 5747 5747 5748 5748 5748 5748 5749
5765 5764 5763 5762 5762 5761 5760 5759 5758 5757 5756 5755 5754 5753 5752 5751 5751 5750 5749 5748 5747 5747 5746 5746 5745 5743 5743 5742 5741 5741 5740 5740 5740 5740 5739 5739 5739 5739 5739 5740 5740 5740 5741
5758 5757 5756 5756 5755 5754 5753 5752 5751 5750 5749 5748 5747 5746 5745 5744 5743 5742 5741 5740 5740 5739 5738 5737 5737 5736 5735 5734 5733 5733 5732 5732 5732 5731 5731 5731 5731 5731 5731 5732 5732 5732 5732
5751 5750 5749 5749 5748 5747 5746 5745 5744 5743 5741 5740 5739 5738 5737 5736 5735 5734 5733 5732 5732 5731 5730 5729 5728 5727 5726 5725 5725 5724 5724 5724 5723 5723 5723 5722 5722 5723 5723 5723 5723 5724 5724
5744 5743 5742 5741 5740 5739 5738 5737 5736 5735 5733 5732 5731 5730 5729 5728 5727 5726 5725 5724 5723 5722 5721 5720 5720 5719 5718 5717 5716 5715 5715 5715 5715 5714 5714 5714 5714 5714 5714 5714 5715 5715 5715
5736 5735 5734 5733 5732 5731 5730 5729 5728 5727 5725 5724 5723 5722 5721 5720 5719 5718 5716 5715 5714 5713 5712 5711 5711 5710 5709 5708 5707 5707 5706 5706 5706 5706 5705 5705 5705 5706 5706 5706 5706 5706 5707
5727 5727 5726 5725 5723 5723 5722 5721 5720 5719 5718 5717 5715 5714 5713 5712 5711 5710 5708 5707 5706 5705 5704 5703 5702 5701 5701 5700 5699 5698 5698 5698 5698 5697 5697 5697 5697 5697 5697 5697 5698 5698 5698
5719 5718 5717 5716 5715 5714 5713 5712 5711 5710 5709 5708 5707 5706 5705 5704 5703 5702 5701 5699 5698 5697 5696 5695 5694 5693 5691 5691 5690 5689 5689 5689 5689 5689 5688 5689 5689 5689 5689 5689 5689 5689 5690
5710 5709 5708 5707 5706 5705 5704 5703 5702 5701 5701 5700 5699 5698 5697 5696 5694 5693 5693 5692 5690 5689 5687 5686 5685 5684 5682 5682 5681 5680 5680 5680 5680 5680 5680 5680 5681 5681 5681 5681 5681 5681 5682
5701 5700 5699 5698 5697 5696 5695 5694 5693 5692 5692 5691 5690 5689 5688 5687 5686 5685 5684 5683 5682 5681 5679 5678 5677 5676 5674 5673 5672 5671 5671 5671 5672 5672 5672 5672 5672 5672 5673 5674 5673 5673 5673